Home > Weather > Cologne > Past weeks

Flag for Germany Past Weather in Cologne, North Rhine-Westphalia, Germany — Yesterday and Last 2 Weeks

Now
63 °F

Rain. Fog.


Feels Like: 63 °F
Forecast: 54 / 68 °F
Wind: 7 mph from North

Location: Koeln / Bonn

Current Time: Jun 25, 2016 at 9:03:26 AM

Latest Report: Jun 25, 2016 at 8:20 AM


Visibility: 1 mi

Pressure: 29.95 "Hg

Humidity: 100%

Dew Point: 63 °F

Location of CologneLocation

Past Weather in Cologne — Graph

°F

Cologne Temperature Yesterday

Maximum temperature yesterday: 77 °F (at 5:50 PM)
Minimum temperature yesterday: 64 °F (at 5:20 AM)
Average temperature yesterday: 71 °F

High & Low Weather Summary for the Past Weeks

 TemperatureHumidityPressure
High91 °F (Jun 23, 3:20 PM)100% (Jun 13, 7:20 AM)30.27 "Hg (Jun 13, 7:20 AM)
Low45 °F (Jun 16, 2:50 AM)31% (Jun 10, 3:50 PM)29.47 "Hg (Jun 14, 5:50 PM)
Average63 °F79%29.88 "Hg
* Reported Jun 10 7:20 AM — Jun 25 7:50 AM, Cologne, Weather by CustomWeather, © 2016

Note: Actual official high and low records may vary slightly from our data, if they occured in-between our weather recording intervals... More about our weather records

Advertising

Cologne Weather History for the Previous 24 Hours

Scroll right to see more
 ConditionsComfort  
Time TempWeatherWind HumidityBarometerVisibility
7:50 AM
Sat, Jun 25
63 °FRain. Fog.6 mph100%29.95 "Hg1 mi
7:20 AM63 °FLight rain. Fog.7 mph100%29.98 "Hg2 mi
6:50 AM63 °FRain. Fog.5 mph100%29.98 "Hg2 mi
6:20 AM64 °FRain. Cloudy.5 mph94%29.98 "Hg2 mi
5:50 AM64 °FRain. Passing clouds.8 mph94%29.98 "Hg4 mi
5:20 AM64 °FLight rain. Passing clouds.7 mph94%29.98 "Hg5 mi
4:50 AM64 °FLight rain. Passing clouds.2 mph94%29.98 "HgN/A
4:20 AM64 °FLight rain. Passing clouds.5 mph94%29.98 "HgN/A
3:50 AM64 °FLight rain. Passing clouds.3 mph94%30.01 "HgN/A
3:20 AM64 °FScattered showers. Passing clouds.5 mph94%30.01 "HgN/A
2:50 AM64 °FPassing clouds.3 mph94%30.01 "HgN/A
2:20 AM64 °FScattered showers. Passing clouds.5 mph94%30.01 "HgN/A
1:50 AM66 °FPassing clouds.5 mph88%30.04 "HgN/A
1:20 AM66 °FPassing clouds.5 mph88%30.04 "HgN/A
12:50 AM66 °FPassing clouds.6 mph88%30.04 "HgN/A
12:20 AM68 °FPassing clouds.5 mph88%30.04 "HgN/A
11:50 PM
Fri, Jun 24
68 °FScattered showers. Partly cloudy.6 mph88%30.04 "HgN/A
11:20 PM70 °FPartly cloudy.6 mph83%30.04 "HgN/A
10:50 PM70 °FPassing clouds.7 mph83%30.04 "HgN/A
10:20 PM70 °FScattered clouds.7 mph83%30.04 "HgN/A
9:50 PM70 °FScattered clouds.6 mph83%30.04 "HgN/A
9:20 PM72 °FBroken clouds.7 mph78%30.04 "HgN/A
8:50 PM73 °FScattered showers. Broken clouds.8 mph78%30.04 "HgN/A
8:20 PM73 °FScattered showers. Partly sunny.6 mph74%30.04 "HgN/A
7:50 PM73 °FScattered clouds.6 mph74%30.04 "HgN/A
7:20 PM73 °FSprinkles. Partly sunny.5 mph78%30.04 "HgN/A
6:50 PM75 °FSprinkles. Partly sunny.8 mph69%30.04 "HgN/A
6:20 PM75 °FBroken clouds.12 mph69%30.04 "HgN/A
5:50 PM77 °FSprinkles. Scattered clouds.12 mph69%30.04 "HgN/A
5:20 PM75 °FSprinkles. Broken clouds.9 mph74%30.04 "HgN/A
4:50 PM75 °FBroken clouds.9 mph74%30.04 "HgN/A
4:20 PM73 °FBroken clouds.7 mph78%30.04 "HgN/A
3:50 PM75 °FPartly sunny.10 mph74%30.07 "HgN/A
3:20 PM73 °FMostly cloudy.12 mph78%30.07 "HgN/A
2:50 PM73 °FPartly sunny.10 mph78%30.07 "HgN/A
2:20 PM75 °FMostly cloudy.8 mph78%30.07 "HgN/A
1:50 PM75 °FPartly sunny.10 mph78%30.04 "HgN/A
1:20 PM73 °FPartly sunny.12 mph78%30.04 "HgN/A
12:50 PM73 °FPartly sunny.12 mph83%30.04 "HgN/A
12:20 PM75 °FBroken clouds.13 mph78%30.04 "HgN/A
11:50 AM73 °FScattered clouds.12 mph83%30.04 "HgN/A
11:20 AM73 °FPassing clouds.8 mph83%30.04 "HgN/A
10:50 AM72 °FPartly sunny.5 mph83%30.04 "HgN/A
10:20 AM70 °FThundershowers. Scattered clouds.6 mph88%30.04 "HgN/A
9:50 AM70 °FScattered showers. Partly sunny.6 mph88%30.04 "HgN/A
9:20 AM70 °FScattered showers. Partly sunny.2 mph88%30.01 "HgN/A
Weather by CustomWeather, © 2016

See weather overviewHow to use our weather pages